Regional Weather Roundup
Issued by NWS Little Rock, AR

Home | Current Version | Previous Version | Text Only | Print | Product List | Glossary Off
Versions: 1 2 3 4 5 6 7 8 9 10 11 12 13 14 15 16 17 18 19 20 21 22 23 24 25 26 27 28 29 30 31 32 33 34 35 36 37 38 39 40 41 42 43 44 45 46 47 48 49 50

000
ASUS44 KLZK 021605
RWRLZK

WEATHER ROUNDUP FOR ARKANSAS
NATIONAL WEATHER SERVICE LITTLE ROCK AR
1100 AM CDT THU JUL 02 2015

NOTE: "FAIR" INDICATES FEW OR NO CLOUDS BELOW 12,000 FEET WITH NO
SIGNIFICANT WEATHER AND/OR OBSTRUCTIONS TO VISIBILITY.

ARZ001-003-010-029-021700-
NORTHWEST ARKANSAS

CITY           SKY/WX    TMP DP  RH WIND       PRES   REMARKS
FAYETTEVILLE   PTSUNNY   80  72  76 SW13G22   29.89S
FORT SMITH     MOSUNNY   83  69  62 W16       29.88S HX  86
HARRISON       CLOUDY    79  73  82 SW7       29.89F
BENTONVILLE    PTSUNNY   81  70  69 SW13G18   29.90R
ROGERS         CLOUDY    80  71  74 W17       29.89S
SILOAM SPGS    PTSUNNY   81  68  65 SW15        N/A
HIGHFILL       PTSUNNY   81  72  74 SW13G25   29.88F HX  85
SPRINGDALE     PTSUNNY   81  72  74 SW14G25   29.91S
$$

ARZ004-005-016-021700-
NORTH CENTRAL ARKANSAS

CITY           SKY/WX    TMP DP  RH WIND       PRES   REMARKS
BATESVILLE     CLOUDY    75  72  88 SW7       29.89R
FLIPPIN        CLOUDY    75  70  83 S7        29.86F
MTN HOME       CLOUDY    72  69  90 S6        29.88S
$$

ARZ040-041-021700-
WEST CENTRAL ARKANSAS

CITY           SKY/WX    TMP DP  RH WIND       PRES   REMARKS
MENA           PTSUNNY   81  70  69 W9G18     29.96F
MOUNT IDA      CLOUDY    80  69  69 VRB3      29.92S
$$

ARZ009-017-025-026-028-021700-
NORTHEAST ARKANSAS

CITY           SKY/WX    TMP DP  RH WIND       PRES   REMARKS
JONESBORO      CLOUDY    80  74  81 SW13      29.88R HX  85
NEWPORT        CLOUDY    76  74  93 SW16      29.88R
WALNUT RIDGE   PTSUNNY   75  70  83 SW5       29.87S
BLYTHEVILLE    PTSUNNY   81  74  79 SW13G24   29.89R HX  86
$$

ARZ022-023-033-042-044-021700-
CENTRAL ARKANSAS

CITY           SKY/WX    TMP DP  RH WIND       PRES   REMARKS
LITTLE ROCK    PTSUNNY   85  68  56 SW12      29.91F HX  88
N LITTLE ROCK  PTSUNNY   81  72  74 S8G16     29.91F HX  86
JACKSONVILLE   PTSUNNY   84  70  62 S10       29.90F HX  89
SEARCY         CLOUDY    79  73  82 S9        29.92F
HOT SPRINGS    CLOUDY    81  68  64 SW15G21   29.95S
RUSSELLVILLE   MOSUNNY   85  70  60 S7        29.88F HX  89
CLINTON        FAIR      82  75  78 CALM      29.91S HX  89
$$

ARZ036-021700-
EAST ARKANSAS

CITY           SKY/WX    TMP DP  RH WIND       PRES   REMARKS
WEST MEMPHIS   CLOUDY    78  70  76 SW10G18   29.91R
$$

ARZ050-053-066-070-073-021700-
SOUTHWEST ARKANSAS

CITY           SKY/WX    TMP DP  RH WIND       PRES   REMARKS
ARKADELPHIA    FAIR      84  70  63 SW13      29.96F HX  88
TEXARKANA      MOSUNNY   84  68  58 W15G25    30.00S HX  87
EL DORADO      PTSUNNY   81  69  67 SW10      30.01F
DE QUEEN       MOSUNNY   83  70  64 W13G24    29.95F HX  87
$$

ARZ056-057-069-021700-
SOUTHEAST ARKANSAS

CITY           SKY/WX    TMP DP  RH WIND       PRES   REMARKS
PINE BLUFF     CLOUDY    81  68  64 SW12G22   29.96F
STUTTGART      CLOUDY    81  68  65 SW16      29.93F
MONTICELLO     CLOUDY    79  70  74 SW9       29.99S

$$





USA.gov is the U.S. government's official web portal to all federal, state and local government web resources and services.